QPF
0.02 0.02 0.01 0.00 0.01 0.01 0.01 0.01 0.01 0.01 0.00 0.00 0.01 0.02 0.01 0.00 0.00 0.00 0.00 0.00 0.00 0.00 0.01 0.01 0.01 0.01 0.01 0.02 0.03 0.04 0.05 0.05 0.06 0.08 0.09 0.09 0.11 0.11 0.11 0.11 0.10 0.11 0.13 0.14
0.01 0.01 0.00 0.00 0.00 0.01 0.01 0.01 0.01 0.01 0.01 0.01 0.02 0.02 0.01 0.00 0.00 0.00 0.00 0.00 0.01 0.00 0.00 0.01 0.00 0.01 0.02 0.02 0.03 0.04 0.04 0.05 0.06 0.07 0.08 0.08 0.09 0.10 0.10 0.11 0.12 0.12 0.13 0.15
0.01 0.01 0.00 0.00 0.00 0.01 0.01 0.01 0.01 0.01 0.01 0.02 0.02 0.01 0.00 0.00 0.01 0.01 0.01 0.02 0.01 0.00 0.00 0.00 0.00 0.00 0.01 0.01 0.02 0.04 0.04 0.04 0.06 0.07 0.08 0.09 0.10 0.12 0.13 0.12 0.12 0.14 0.15 0.16
0.00 0.00 0.00 0.01 0.01 0.01 0.01 0.01 0.01 0.02 0.02 0.02 0.01 0.01 0.01 0.00 0.01 0.01 0.01 0.01 0.00 0.00 0.00 0.00 0.00 0.00 0.01 0.01 0.02 0.03 0.04 0.05 0.06 0.07 0.09 0.09 0.09 0.11 0.12 0.11 0.10 0.11 0.15 0.16
0.00 0.00 0.00 0.00 0.00 0.00 0.01 0.01 0.01 0.02 0.01 0.01 0.01 0.02 0.01 0.01 0.01 0.01 0.01 0.01 0.01 0.00 0.00 0.00 0.00 0.00 0.00 0.01 0.01 0.03 0.04 0.05 0.07 0.08 0.08 0.07 0.07 0.08 0.10 0.13 0.12 0.11 0.15 0.19
0.00 0.00 0.00 0.00 0.00 0.00 0.00 0.00 0.00 0.01 0.01 0.01 0.00 0.01 0.01 0.02 0.03 0.02 0.02 0.01 0.01 0.00 0.00 0.00 0.00 0.00 0.01 0.01 0.02 0.03 0.04 0.05 0.07 0.09 0.10 0.08 0.07 0.08 0.10 0.14 0.15 0.13 0.15 0.19
0.00 0.00 0.00 0.00 0.00 0.00 0.00 0.00 0.01 0.00 0.00 0.00 0.00 0.00 0.01 0.02 0.02 0.03 0.03 0.02 0.01 0.00 0.00 0.00 0.00 0.00 0.00 0.01 0.02 0.02 0.03 0.05 0.06 0.09 0.11 0.11 0.09 0.09 0.10 0.13 0.14 0.15 0.16 0.18
0.00 0.00 0.00 0.00 0.00 0.00 0.00 0.00 0.01 0.01 0.00 0.00 0.00 0.00 0.01 0.02 0.01 0.01 0.02 0.03 0.02 0.01 0.01 0.00 0.00 0.00 0.00 0.01 0.01 0.02 0.02 0.04 0.06 0.08 0.10 0.12 0.12 0.11 0.11 0.12 0.14 0.15 0.16 0.17
0.00 0.00 0.00 0.00 0.00 0.00 0.00 0.00 0.00 0.01 0.01 0.01 0.00 0.00 0.00 0.00 0.00 0.00 0.01 0.01 0.02 0.02 0.03 0.02 0.01 0.00 0.00 0.01 0.01 0.01 0.02 0.03 0.05 0.07 0.09 0.10 0.12 0.12 0.12 0.12 0.13 0.16 0.18 0.19
0.01 0.01 0.00 0.00 0.00 0.00 0.00 0.00 0.01 0.02 0.02 0.01 0.00 0.00 0.00 0.00 0.00 0.00 0.00 0.00 0.01 0.02 0.02 0.02 0.02 0.01 0.00 0.01 0.01 0.01 0.02 0.03 0.05 0.07 0.08 0.11 0.13 0.15 0.14 0.14 0.13 0.13 0.14 0.17
0.01 0.01 0.01 0.00 0.00 0.00 0.00 0.00 0.00 0.01 0.02 0.02 0.01 0.00 0.00 0.00 0.00 0.00 0.00 0.00 0.00 0.01 0.01 0.02 0.03 0.03 0.02 0.02 0.02 0.02 0.02 0.03 0.04 0.06 0.07 0.08 0.11 0.14 0.18 0.19 0.18 0.16 0.14 0.14
0.01 0.02 0.01 0.00 0.00 0.00 0.00 0.00 0.01 0.02 0.02 0.02 0.03 0.01 0.00 0.00 0.00 0.00 0.00 0.00 0.00 0.01 0.02 0.02 0.04 0.04 0.03 0.03 0.03 0.03 0.03 0.03 0.03 0.04 0.05 0.06 0.08 0.10 0.13 0.17 0.21 0.23 0.19 0.15
0.02 0.04 0.04 0.01 0.00 0.00 0.00 0.01 0.01 0.02 0.04 0.04 0.04 0.01 0.00 0.00 0.00 0.00 0.00 0.00 0.00 0.01 0.01 0.02 0.03 0.03 0.03 0.03 0.04 0.05 0.04 0.03 0.02 0.03 0.05 0.06 0.07 0.09 0.11 0.13 0.16 0.23 0.24 0.20
0.05 0.06 0.04 0.01 0.00 0.00 0.01 0.00 0.01 0.02 0.05 0.03 0.01 0.00 0.00 0.00 0.00 0.00 0.00 0.00 0.01 0.00 0.01 0.01 0.01 0.01 0.02 0.03 0.04 0.05 0.04 0.03 0.02 0.03 0.04 0.05 0.06 0.08 0.11 0.15 0.16 0.20 0.26 0.24
0.08 0.08 0.02 0.01 0.00 0.00 0.00 0.01 0.01 0.02 0.02 0.03 0.01 0.00 0.00 0.00 0.00 0.00 0.01 0.01 0.01 0.01 0.01 0.01 0.01 0.01 0.01 0.02 0.03 0.04 0.03 0.03 0.02 0.02 0.03 0.04 0.06 0.07 0.11 0.17 0.21 0.22 0.27 0.28
0.07 0.09 0.04 0.02 0.00 0.00 0.01 0.01 0.01 0.01 0.01 0.01 0.01 0.00 0.00 0.00 0.01 0.01 0.01 0.01 0.02 0.02 0.02 0.01 0.01 0.01 0.01 0.02 0.02 0.03 0.03 0.03 0.02 0.02 0.02 0.03 0.06 0.08 0.10 0.14 0.21 0.23 0.25 0.28
0.07 0.08 0.09 0.05 0.01 0.02 0.02 0.01 0.01 0.01 0.01 0.01 0.01 0.01 0.01 0.00 0.00 0.00 0.01 0.01 0.02 0.02 0.02 0.01 0.01 0.01 0.02 0.02 0.02 0.02 0.02 0.03 0.02 0.02 0.01 0.02 0.04 0.08 0.09 0.11 0.16 0.23 0.25 0.24
0.05 0.07 0.11 0.09 0.04 0.04 0.01 0.01 0.01 0.01 0.01 0.01 0.01 0.00 0.00 0.00 0.00 0.00 0.01 0.02 0.03 0.03 0.02 0.01 0.01 0.01 0.02 0.02 0.02 0.02 0.02 0.02 0.02 0.02 0.02 0.02 0.03 0.06 0.08 0.09 0.12 0.19 0.26 0.25
0.02 0.05 0.11 0.11 0.07 0.02 0.00 0.00 0.01 0.01 0.01 0.01 0.01 0.00 0.00 0.00 0.00 0.00 0.01 0.02 0.03 0.04 0.03 0.02 0.01 0.01 0.01 0.01 0.01 0.02 0.02 0.02 0.02 0.01 0.01 0.02 0.02 0.04 0.08 0.09 0.10 0.14 0.21 0.25
0.02 0.05 0.12 0.12 0.09 0.03 0.00 0.00 0.00 0.00 0.00 0.00 0.00 0.00 0.00 0.00 0.00 0.00 0.00 0.01 0.01 0.02 0.03 0.02 0.02 0.01 0.01 0.01 0.01 0.02 0.02 0.02 0.02 0.02 0.02 0.02 0.02 0.03 0.06 0.09 0.10 0.14 0.18 0.22
0.03 0.06 0.09 0.07 0.07 0.02 0.00 0.00 0.00 0.01 0.01 0.01 0.01 0.00 0.00 0.00 0.01 0.01 0.01 0.01 0.01 0.01 0.02 0.02 0.02 0.02 0.02 0.02 0.02 0.02 0.02 0.03 0.03 0.03 0.02 0.02 0.02 0.02 0.04 0.08 0.11 0.14 0.18 0.21
0.01 0.03 0.03 0.04 0.06 0.03 0.00 0.00 0.01 0.01 0.01 0.01 0.01 0.00 0.00 0.00 0.00 0.00 0.00 0.00 0.00 0.00 0.01 0.01 0.02 0.02 0.02 0.03 0.03 0.04 0.04 0.03 0.03 0.03 0.02 0.02 0.02 0.02 0.04 0.08 0.11 0.14 0.18 0.20
0.01 0.01 0.01 0.01 0.01 0.00 0.00 0.00 0.01 0.01 0.01 0.01 0.01 0.01 0.01 0.00 0.00 0.00 0.00 0.00 0.00 0.00 0.01 0.01 0.02 0.02 0.02 0.03 0.04 0.04 0.03 0.03 0.03 0.02 0.02 0.02 0.02 0.03 0.04 0.07 0.11 0.14 0.17 0.18
0.00 0.00 0.01 0.01 0.01 0.01 0.01 0.01 0.01 0.01 0.01 0.01 0.01 0.01 0.01 0.01 0.00 0.00 0.00 0.00 0.00 0.00 0.01 0.01 0.02 0.02 0.02 0.03 0.03 0.03 0.02 0.02 0.02 0.02 0.02 0.03 0.03 0.03 0.03 0.06 0.10 0.13 0.16 0.15
0.01 0.01 0.02 0.01 0.01 0.01 0.01 0.01 0.00 0.00 0.00 0.00 0.01 0.01 0.01 0.01 0.01 0.00 0.00 0.00 0.00 0.00 0.01 0.01 0.02 0.02 0.03 0.03 0.03 0.02 0.01 0.02 0.02 0.02 0.02 0.02 0.03 0.03 0.04 0.05 0.09 0.11 0.13 0.13
0.01 0.01 0.01 0.01 0.00 0.00 0.00 0.00 0.00 0.00 0.00 0.00 0.00 0.01 0.01 0.01 0.01 0.00 0.00 0.00 0.00 0.01 0.01 0.02 0.02 0.02 0.02 0.03 0.03 0.02 0.01 0.01 0.01 0.01 0.02 0.02 0.03 0.03 0.03 0.05 0.07 0.08 0.10 0.11
MSLP
1015.08 1015.20 1015.33 1015.50 1015.70 1015.94 1016.18 1016.36 1016.44 1016.35 1016.07 1015.59 1014.96 1014.23 1013.47 1012.77 1012.19 1011.75 1011.47 1011.31 1011.23 1011.19 1011.15 1011.09 1011.00 1010.91 1010.85 1010.84 1010.89 1011.01 1011.16 1011.30 1011.39 1011.39 1011.28 1011.05 1010.72 1010.32 1009.88 1009.41 1008.94 1008.45 1007.93 1007.36
1015.28 1015.26 1015.26 1015.33 1015.51 1015.79 1016.14 1016.48 1016.73 1016.80 1016.64 1016.22 1015.57 1014.74 1013.83 1012.94 1012.15 1011.54 1011.12 1010.88 1010.78 1010.76 1010.79 1010.80 1010.78 1010.75 1010.72 1010.72 1010.77 1010.87 1011.01 1011.15 1011.25 1011.27 1011.18 1010.98 1010.67 1010.27 1009.82 1009.34 1008.85 1008.35 1007.83 1007.26
1015.35 1015.18 1015.05 1015.05 1015.22 1015.56 1016.04 1016.55 1017.00 1017.25 1017.22 1016.87 1016.20 1015.28 1014.21 1013.12 1012.13 1011.33 1010.76 1010.43 1010.30 1010.31 1010.39 1010.48 1010.54 1010.57 1010.58 1010.59 1010.63 1010.71 1010.83 1010.96 1011.07 1011.11 1011.05 1010.88 1010.59 1010.21 1009.77 1009.30 1008.82 1008.32 1007.81 1007.25
1015.35 1015.04 1014.82 1014.77 1014.96 1015.38 1016.00 1016.70 1017.33 1017.76 1017.85 1017.55 1016.86 1015.84 1014.61 1013.33 1012.14 1011.15 1010.45 1010.03 1009.87 1009.90 1010.04 1010.19 1010.32 1010.40 1010.44 1010.45 1010.47 1010.53 1010.62 1010.74 1010.84 1010.89 1010.86 1010.72 1010.47 1010.13 1009.71 1009.26 1008.80 1008.33 1007.83 1007.30
1015.33 1014.94 1014.67 1014.61 1014.85 1015.38 1016.14 1017.01 1017.81 1018.37 1018.55 1018.27 1017.53 1016.41 1015.03 1013.56 1012.19 1011.04 1010.22 1009.73 1009.55 1009.59 1009.77 1009.98 1010.16 1010.27 1010.31 1010.31 1010.30 1010.31 1010.37 1010.45 1010.55 1010.61 1010.60 1010.50 1010.30 1010.00 1009.62 1009.21 1008.77 1008.32 1007.86 1007.35
1015.36 1014.95 1014.68 1014.67 1014.99 1015.64 1016.54 1017.54 1018.45 1019.10 1019.31 1019.01 1018.20 1016.95 1015.42 1013.79 1012.26 1010.99 1010.07 1009.53 1009.34 1009.40 1009.60 1009.85 1010.05 1010.16 1010.19 1010.15 1010.08 1010.04 1010.04 1010.09 1010.17 1010.24 1010.26 1010.20 1010.05 1009.80 1009.47 1009.09 1008.69 1008.27 1007.84 1007.36
1015.50 1015.13 1014.92 1014.99 1015.41 1016.17 1017.17 1018.25 1019.22 1019.87 1020.05 1019.68 1018.76 1017.39 1015.72 1013.96 1012.31 1010.95 1009.98 1009.41 1009.21 1009.28 1009.51 1009.77 1009.97 1010.06 1010.04 1009.94 1009.80 1009.69 1009.63 1009.64 1009.70 1009.77 1009.82 1009.81 1009.71 1009.51 1009.23 1008.89 1008.53 1008.14 1007.73 1007.29
1015.75 1015.46 1015.35 1015.52 1016.04 1016.88 1017.93 1019.03 1019.97 1020.56 1020.65 1020.16 1019.11 1017.60 1015.81 1013.95 1012.24 1010.84 1009.84 1009.28 1009.09 1009.18 1009.42 1009.67 1009.84 1009.89 1009.81 1009.63 1009.41 1009.22 1009.10 1009.07 1009.12 1009.21 1009.29 1009.33 1009.28 1009.13 1008.90 1008.61 1008.27 1007.91 1007.52 1007.10
1016.08 1015.88 1015.87 1016.14 1016.73 1017.60 1018.65 1019.69 1020.54 1020.99 1020.93 1020.28 1019.09 1017.46 1015.58 1013.67 1011.94 1010.55 1009.58 1009.04 1008.89 1009.00 1009.24 1009.47 1009.60 1009.59 1009.44 1009.18 1008.89 1008.63 1008.46 1008.41 1008.45 1008.56 1008.68 1008.76 1008.77 1008.69 1008.50 1008.24 1007.93 1007.59 1007.22 1006.82
1016.37 1016.27 1016.35 1016.68 1017.30 1018.15 1019.11 1020.03 1020.70 1020.97 1020.72 1019.90 1018.57 1016.86 1014.94 1013.04 1011.34 1010.00 1009.10 1008.62 1008.51 1008.64 1008.88 1009.09 1009.18 1009.11 1008.89 1008.57 1008.23 1007.93 1007.73 1007.67 1007.72 1007.86 1008.03 1008.17 1008.23 1008.19 1008.05 1007.82 1007.53 1007.21 1006.85 1006.47
1016.53 1016.49 1016.61 1016.96 1017.54 1018.30 1019.12 1019.85 1020.30 1020.35 1019.90 1018.93 1017.50 1015.74 1013.84 1012.00 1010.40 1009.17 1008.36 1007.97 1007.91 1008.06 1008.30 1008.49 1008.54 1008.43 1008.17 1007.82 1007.45 1007.14 1006.95 1006.91 1006.99 1007.17 1007.39 1007.58 1007.69 1007.69 1007.59 1007.39 1007.11 1006.80 1006.46 1006.09
1016.48 1016.45 1016.57 1016.88 1017.36 1017.97 1018.59 1019.08 1019.30 1019.12 1018.49 1017.39 1015.91 1014.18 1012.35 1010.64 1009.18 1008.08 1007.40 1007.10 1007.10 1007.28 1007.52 1007.69 1007.72 1007.59 1007.32 1006.97 1006.62 1006.34 1006.19 1006.19 1006.32 1006.55 1006.81 1007.04 1007.19 1007.22 1007.14 1006.96 1006.70 1006.39 1006.06 1005.70
1016.19 1016.14 1016.20 1016.41 1016.75 1017.15 1017.54 1017.78 1017.75 1017.37 1016.59 1015.43 1013.96 1012.30 1010.62 1009.07 1007.79 1006.87 1006.32 1006.11 1006.17 1006.37 1006.60 1006.75 1006.78 1006.65 1006.41 1006.10 1005.81 1005.60 1005.51 1005.58 1005.77 1006.04 1006.33 1006.59 1006.75 1006.80 1006.73 1006.55 1006.29 1006.00 1005.67 1005.33
1015.71 1015.60 1015.57 1015.64 1015.79 1015.97 1016.11 1016.09 1015.85 1015.30 1014.42 1013.25 1011.85 1010.34 1008.84 1007.50 1006.42 1005.67 1005.25 1005.13 1005.22 1005.42 1005.64 1005.79 1005.81 1005.72 1005.53 1005.30 1005.09 1004.97 1004.98 1005.12 1005.36 1005.67 1005.97 1006.23 1006.39 1006.42 1006.33 1006.15 1005.90 1005.60 1005.29 1004.97
1015.16 1014.97 1014.82 1014.73 1014.67 1014.61 1014.50 1014.26 1013.82 1013.15 1012.24 1011.11 1009.83 1008.50 1007.22 1006.11 1005.23 1004.65 1004.34 1004.27 1004.38 1004.57 1004.76 1004.89 1004.93 1004.87 1004.76 1004.62 1004.53 1004.52 1004.62 1004.83 1005.11 1005.43 1005.72 1005.94 1006.06 1006.06 1005.94 1005.73 1005.47 1005.19 1004.89 1004.59
1014.67 1014.39 1014.12 1013.84 1013.58 1013.29 1012.95 1012.50 1011.92 1011.17 1010.26 1009.22 1008.10 1006.98 1005.93 1005.04 1004.36 1003.91 1003.68 1003.64 1003.73 1003.89 1004.04 1004.15 1004.20 1004.19 1004.15 1004.12 1004.14 1004.24 1004.42 1004.68 1004.98 1005.27 1005.52 1005.68 1005.73 1005.67 1005.50 1005.26 1004.99 1004.71 1004.43 1004.16
1014.35 1013.99 1013.58 1013.14 1012.67 1012.17 1011.62 1011.01 1010.32 1009.54 1008.67 1007.74 1006.80 1005.88 1005.06 1004.37 1003.85 1003.51 1003.33 1003.29 1003.34 1003.44 1003.54 1003.62 1003.67 1003.70 1003.74 1003.80 1003.92 1004.10 1004.34 1004.63 1004.91 1005.16 1005.33 1005.40 1005.35 1005.20 1004.97 1004.70 1004.41 1004.14 1003.89 1003.65
1014.24 1013.79 1013.26 1012.66 1012.01 1011.33 1010.61 1009.88 1009.11 1008.32 1007.52 1006.72 1005.94 1005.23 1004.60 1004.08 1003.69 1003.42 1003.26 1003.19 1003.19 1003.21 1003.25 1003.29 1003.34 1003.40 1003.49 1003.62 1003.82 1004.06 1004.33 1004.60 1004.84 1005.00 1005.07 1005.03 1004.88 1004.63 1004.33 1004.02 1003.72 1003.46 1003.24 1003.05
1014.27 1013.74 1013.09 1012.36 1011.56 1010.72 1009.88 1009.05 1008.25 1007.48 1006.75 1006.07 1005.46 1004.92 1004.45 1004.08 1003.78 1003.56 1003.40 1003.29 1003.21 1003.16 1003.13 1003.13 1003.16 1003.23 1003.36 1003.54 1003.77 1004.03 1004.29 1004.53 1004.69 1004.75 1004.70 1004.54 1004.27 1003.94 1003.57 1003.23 1002.92 1002.68 1002.50 1002.35
1014.29 1013.69 1012.94 1012.09 1011.18 1010.24 1009.31 1008.43 1007.61 1006.88 1006.24 1005.68 1005.21 1004.81 1004.49 1004.21 1003.99 1003.79 1003.62 1003.47 1003.33 1003.21 1003.13 1003.08 1003.09 1003.16 1003.29 1003.48 1003.72 1003.96 1004.18 1004.34 1004.41 1004.36 1004.19 1003.91 1003.54 1003.13 1002.72 1002.34 1002.04 1001.83 1001.68 1001.58
1014.12 1013.44 1012.62 1011.70 1010.71 1009.71 1008.75 1007.86 1007.07 1006.40 1005.84 1005.40 1005.05 1004.78 1004.56 1004.37 1004.20 1004.03 1003.84 1003.66 1003.47 1003.30 1003.16 1003.08 1003.06 1003.11 1003.23 1003.40 1003.60 1003.80 1003.95 1004.02 1003.98 1003.82 1003.53 1003.15 1002.71 1002.23 1001.79 1001.41 1001.13 1000.94 1000.83 1000.78
1013.59 1012.86 1012.00 1011.04 1010.04 1009.04 1008.10 1007.25 1006.53 1005.93 1005.47 1005.13 1004.89 1004.72 1004.59 1004.47 1004.34 1004.18 1004.00 1003.79 1003.58 1003.37 1003.20 1003.07 1003.02 1003.04 1003.12 1003.24 1003.38 1003.50 1003.56 1003.53 1003.39 1003.13 1002.75 1002.30 1001.80 1001.30 1000.84 1000.48 1000.21 1000.06 999.99 999.96
1012.63 1011.88 1011.02 1010.09 1009.13 1008.20 1007.33 1006.57 1005.94 1005.45 1005.10 1004.86 1004.71 1004.62 1004.55 1004.48 1004.39 1004.25 1004.07 1003.85 1003.62 1003.39 1003.19 1003.03 1002.94 1002.90 1002.92 1002.98 1003.03 1003.06 1003.02 1002.89 1002.65 1002.31 1001.88 1001.38 1000.86 1000.36 999.92 999.58 999.34 999.21 999.16 999.15
1011.29 1010.56 1009.75 1008.90 1008.05 1007.25 1006.51 1005.89 1005.39 1005.02 1004.77 1004.62 1004.55 1004.51 1004.49 1004.45 1004.37 1004.24 1004.06 1003.84 1003.59 1003.34 1003.11 1002.92 1002.77 1002.68 1002.62 1002.58 1002.54 1002.47 1002.33 1002.10 1001.79 1001.40 1000.93 1000.42 999.91 999.44 999.04 998.73 998.53 998.42 998.37 998.36
1009.72 1009.07 1008.37 1007.67 1006.98 1006.35 1005.80 1005.34 1004.98 1004.74 1004.59 1004.51 1004.49 1004.48 1004.47 1004.43 1004.35 1004.20 1004.01 1003.77 1003.50 1003.22 1002.96 1002.71 1002.50 1002.33 1002.18 1002.05 1001.90 1001.72 1001.49 1001.20 1000.83 1000.41 999.95 999.46 998.99 998.57 998.22 997.96 997.78 997.67 997.61 997.57
1008.18 1007.66 1007.13 1006.62 1006.14 1005.72 1005.36 1005.07 1004.87 1004.74 1004.66 1004.63 1004.62 1004.60 1004.56 1004.48 1004.36 1004.17 1003.93 1003.65 1003.34 1003.01 1002.69 1002.38 1002.10 1001.84 1001.59 1001.36 1001.11 1000.84 1000.54 1000.19 999.80 999.37 998.94 998.50 998.09 997.74 997.44 997.22 997.06 996.95 996.86 996.78
Thickness
5574 5567 5564 5563 5558 5562 5557 5550 5545 5550 5556 5554 5555 5565 5578 5578 5571 5568 5567 5566 5566 5568 5570 5571 5571 5570 5569 5570 5571 5572 5573 5574 5575 5578 5581 5585 5589 5593 5596 5600 5604 5609 5613 5616
5563 5561 5565 5562 5556 5552 5546 5541 5538 5545 5549 5550 5547 5557 5568 5568 5566 5565 5562 5559 5557 5558 5559 5560 5559 5557 5555 5556 5558 5559 5559 5561 5562 5563 5566 5569 5574 5577 5581 5586 5590 5595 5599 5603
5561 5564 5564 5558 5552 5546 5542 5535 5536 5537 5537 5536 5531 5550 5560 5564 5560 5557 5554 5550 5547 5547 5546 5547 5547 5545 5543 5544 5545 5547 5547 5549 5549 5550 5551 5554 5557 5560 5565 5571 5576 5581 5585 5591
5552 5555 5555 5551 5546 5542 5538 5540 5534 5530 5518 5514 5515 5520 5546 5547 5545 5548 5544 5538 5535 5534 5534 5534 5534 5534 5533 5533 5533 5533 5534 5536 5536 5536 5537 5539 5543 5547 5552 5556 5562 5567 5572 5578
5547 5549 5547 5544 5543 5538 5533 5532 5526 5518 5507 5496 5497 5493 5527 5531 5535 5539 5537 5531 5525 5523 5522 5522 5522 5522 5523 5522 5521 5521 5522 5523 5524 5524 5525 5527 5531 5534 5538 5543 5548 5555 5560 5566
5537 5539 5539 5538 5538 5533 5526 5518 5507 5490 5484 5483 5492 5480 5508 5517 5526 5529 5528 5522 5516 5512 5511 5511 5512 5510 5510 5510 5509 5509 5509 5511 5512 5513 5515 5517 5519 5523 5526 5531 5537 5544 5550 5555
5528 5531 5531 5531 5526 5521 5514 5500 5486 5478 5466 5477 5486 5478 5503 5522 5518 5516 5514 5510 5505 5500 5498 5499 5500 5500 5499 5499 5499 5498 5499 5501 5503 5504 5506 5509 5511 5513 5517 5523 5529 5535 5541 5547
5510 5516 5523 5519 5518 5509 5500 5492 5477 5469 5462 5472 5476 5480 5507 5518 5513 5506 5501 5497 5493 5490 5487 5488 5489 5489 5489 5489 5489 5489 5490 5493 5495 5495 5497 5500 5502 5505 5510 5516 5522 5529 5535 5541
5494 5501 5513 5511 5509 5501 5487 5477 5473 5455 5442 5439 5461 5470 5493 5509 5504 5499 5492 5486 5483 5482 5480 5478 5478 5478 5478 5479 5480 5481 5482 5484 5486 5486 5489 5493 5496 5500 5504 5509 5516 5523 5530 5536
5492 5487 5497 5496 5497 5492 5483 5467 5449 5443 5437 5440 5454 5462 5482 5495 5496 5493 5484 5477 5476 5474 5471 5470 5470 5469 5470 5471 5472 5473 5474 5476 5477 5479 5482 5487 5490 5493 5498 5503 5511 5518 5524 5529
5483 5474 5479 5480 5481 5477 5463 5457 5451 5434 5428 5427 5435 5478 5494 5486 5487 5481 5475 5469 5465 5464 5463 5462 5461 5461 5460 5461 5463 5464 5465 5467 5469 5471 5475 5478 5483 5488 5493 5499 5506 5512 5519 5524
5473 5461 5458 5464 5472 5472 5462 5455 5443 5434 5424 5412 5418 5470 5498 5484 5476 5469 5465 5462 5459 5457 5456 5454 5453 5452 5451 5453 5454 5455 5457 5459 5462 5464 5467 5471 5476 5481 5486 5493 5501 5508 5514 5520
5463 5451 5449 5461 5458 5451 5445 5443 5438 5432 5421 5413 5415 5460 5484 5471 5465 5461 5457 5454 5452 5451 5449 5447 5445 5444 5443 5444 5445 5447 5450 5452 5455 5458 5461 5465 5469 5475 5480 5488 5496 5502 5508 5514
5464 5447 5452 5463 5462 5443 5433 5434 5428 5422 5419 5421 5432 5456 5475 5467 5460 5457 5451 5447 5443 5441 5440 5439 5438 5437 5436 5436 5436 5438 5442 5445 5448 5452 5455 5459 5463 5469 5476 5483 5490 5497 5503 5510
5452 5447 5442 5450 5453 5443 5441 5442 5432 5424 5427 5425 5444 5448 5466 5463 5454 5448 5444 5440 5438 5435 5433 5432 5431 5430 5428 5428 5429 5431 5434 5437 5441 5445 5449 5454 5459 5465 5470 5478 5485 5491 5497 5504
5441 5439 5435 5440 5446 5437 5441 5450 5442 5436 5433 5430 5434 5445 5461 5452 5443 5437 5433 5430 5429 5427 5427 5426 5425 5423 5421 5420 5422 5424 5427 5430 5434 5439 5444 5449 5454 5458 5465 5472 5478 5485 5491 5498
5433 5429 5427 5433 5433 5424 5436 5455 5448 5440 5439 5433 5431 5447 5449 5440 5436 5431 5427 5423 5419 5418 5418 5418 5416 5414 5413 5413 5414 5416 5420 5423 5427 5432 5437 5444 5449 5454 5460 5467 5472 5479 5486 5494
5428 5422 5420 5419 5410 5422 5459 5456 5450 5442 5444 5437 5434 5436 5433 5429 5426 5422 5418 5413 5411 5411 5411 5410 5408 5407 5407 5406 5407 5409 5412 5416 5420 5425 5430 5437 5443 5449 5456 5462 5467 5474 5482 5490
5429 5420 5412 5407 5404 5416 5441 5444 5434 5425 5430 5435 5426 5427 5423 5418 5412 5414 5413 5408 5404 5404 5403 5402 5400 5398 5399 5399 5400 5402 5406 5409 5413 5418 5424 5430 5436 5443 5450 5456 5461 5468 5476 5484
5417 5412 5407 5403 5398 5409 5440 5438 5427 5419 5414 5427 5419 5414 5410 5404 5396 5407 5409 5403 5399 5396 5395 5394 5393 5391 5391 5392 5392 5394 5398 5401 5406 5411 5417 5424 5430 5436 5443 5450 5456 5464 5472 5480
5399 5397 5401 5400 5398 5408 5426 5419 5414 5404 5414 5418 5409 5405 5399 5391 5393 5398 5397 5393 5391 5389 5387 5387 5385 5384 5385 5385 5385 5387 5391 5395 5400 5405 5411 5418 5424 5430 5437 5444 5452 5459 5468 5475
5396 5389 5388 5389 5389 5406 5417 5404 5404 5409 5408 5404 5399 5395 5390 5388 5388 5387 5385 5383 5382 5379 5379 5378 5377 5378 5378 5378 5379 5382 5386 5391 5395 5400 5406 5412 5418 5424 5432 5438 5447 5456 5463 5469
5392 5399 5396 5395 5409 5412 5403 5402 5402 5397 5393 5392 5388 5386 5382 5380 5379 5378 5376 5374 5372 5370 5369 5369 5368 5370 5372 5372 5373 5376 5382 5386 5390 5395 5401 5407 5414 5419 5426 5433 5442 5450 5458 5464
5381 5383 5379 5380 5392 5394 5391 5389 5388 5385 5382 5382 5378 5375 5372 5369 5369 5367 5366 5365 5362 5361 5360 5360 5359 5361 5365 5367 5368 5370 5375 5379 5384 5389 5394 5401 5408 5415 5422 5429 5437 5445 5452 5458
5379 5370 5368 5371 5380 5379 5383 5381 5379 5376 5373 5370 5367 5364 5362 5360 5359 5357 5356 5355 5354 5353 5352 5351 5351 5354 5357 5360 5362 5365 5368 5372 5377 5383 5389 5396 5403 5409 5416 5423 5430 5438 5447 5453
5371 5367 5364 5375 5377 5369 5373 5374 5370 5366 5364 5360 5357 5356 5354 5351 5350 5349 5347 5346 5345 5344 5344 5344 5345 5347 5350 5353 5356 5359 5362 5365 5371 5377 5383 5389 5396 5403 5410 5417 5425 5433 5440 5449